Location: Hains Lake
(37.8540°N, 99.8578°W)
Time: 23:04:21
(UTC+00:00)

Vanguard 2 Rocket - Pass Details

Date: 25 April 2021
Orbit: 553 x 3326 km, 32.9° (Epoch: 06 May)

Event Time Altitude Azimuth Distance (km) Brightness Sun altitude
Rises 17:59:57 0° 233° (SW) 5,329 10.9 64.2°
Reaches altitude 10° 18:03:00 10° 229° (SW) 4,644 10.8 64.4°
Maximum altitude 18:16:55 58° 154° (SSE) 3,258 12.2 65.2°
Drops below altitude 10° 18:36:24 10° 83° (E) 6,284 11.3 65.6°
Sets 18:41:20 0° 80° (E) 7,245 11.4 65.6°
